Location: College Park
(38.9810°N, 76.9370°W)
Time: 15:24:52
(UTC-04:00)

Envisat - Pass Details

Date: 08 March 2018
Orbit: 764 x 766 km, 98.2° (Epoch: 20 June)

Event Time Altitude Azimuth Distance (km) Brightness Sun altitude
Rises 19:34:52 0° 166° (SSE) 3,214 6.0 -17.7°
Reaches altitude 10° 19:37:10 10° 166° (SSE) 2,292 5.2 -18.1°
Maximum altitude 19:42:14 89° 257° (WSW) 770 2.9 -19.1°
Drops below altitude 10° 19:47:20 10° 347° (NNW) 2,308 5.8 -20.1°
Sets 19:49:38 0° 348° (NNW) 3,238 6.6 -20.5°
